Weather History for Dubai, United Arab Emirates

Change the Weather History Date:

Wednesday, May 15, 2013

  Actual Average Record
Temperature  
Mean Temperature 90 °F -  
Max Temperature 100 °F 99 °F 107 °F (1998)
Min Temperature 81 °F 78 °F 32 °F (2006)
Cooling Degree Days 26    
Growing Degree Days 40 (Base 50)    
Moisture  
Dew Point 58 °F    
Average Humidity 32    
Maximum Humidity 58    
Minimum Humidity 11    
Precipitation  
Precipitation 0.00 in 0.00 in - ()
Sea Level Pressure  
Sea Level Pressure 29.68 in    
Wind  
Wind Speed 7 mph ()    
Max Wind Speed 14 mph    
Max Gust Speed -    
Visibility 4.9 miles    
Events      
Averages and records for this station are not official NWS values.
T = Trace of Precipitation, MM = Missing Value Source: Averaged Metar Reports

Daily Weather History Graph

Daily Weather History Graph

Search for Another Location

Airport:

Trip Planner

Search our weather history database for the weather conditions in past years. The results will help you decide how hot, cold, wet, or windy it might be!

Date:

Astronomy

May. 15, 2013 Rise Set
Actual Time 5:33 AM GST 6:56 PM GST
Civil Twilight 5:09 AM GST 7:21 PM GST
Nautical Twilight 4:39 AM GST 7:50 PM GST
Astronomical Twilight 4:08 AM GST 8:21 PM GST
Moon 9:43 AM GST (5/15) 11:10 PM GST (5/15)
Length of Visible Light 14h 12m
Length of Day
13h 22m
Waxing Crescent, 24% of the Moon is Illuminated
May 15
Waxing Crescent
May 18
First Quarter
May 25
Full
May 31
Last Quarter
Jun 8
New

Hourly Weather History & Observations

Time (GST) Temp. Heat Index Dew Point Humidity Pressure Visibility Wind Dir Wind Speed Gust Speed Precip Events Conditions
12:00 AM 89.6 °F 88.9 °F 59.0 °F 36% 29.68 in - SE 3.5 mph - N/A   Clear
1:00 AM 89.6 °F 89.5 °F 60.8 °F 38% 29.65 in - South 4.6 mph - N/A   Clear
2:00 AM 87.8 °F 89.4 °F 64.4 °F 46% 29.65 in - South 4.6 mph - N/A   Clear
3:00 AM 87.8 °F 89.4 °F 64.4 °F 46% 29.65 in - South 6.9 mph - N/A   Clear
4:00 AM 85 °F - 64 °F 39% 29.66 in 6 mi SSE 5.8 mph - -  
4:00 AM 84.2 °F 85.0 °F 62.6 °F 48% 29.65 in - SSE 5.8 mph - N/A   Clear
5:00 AM 82.4 °F 83.9 °F 64.4 °F 54% 29.65 in - South 5.8 mph - N/A   Clear
6:00 AM 82.4 °F 84.6 °F 66.2 °F 58% 29.68 in 4.3 mi South 5.8 mph - N/A   Unknown
7:00 AM 83 °F - 65 °F 46% 29.70 in 4 mi SSW 9.2 mph - -   Widespread Dust
7:00 AM 84.2 °F 86.6 °F 66.2 °F 55% 29.68 in 4.3 mi SSW 9.2 mph - N/A   Unknown
8:00 AM 86.0 °F 87.3 °F 64.4 °F 48% 29.71 in 4.3 mi South 5.8 mph - N/A   Unknown
9:00 AM 91.4 °F 91.4 °F 60.8 °F 36% 29.71 in 5.0 mi SSW 4.6 mph - N/A   Unknown
10:00 AM 95 °F - 62 °F 24% 29.72 in 4 mi 4.6 mph - -   Widespread Dust
10:00 AM 95.0 °F 96.0 °F 62.6 °F 34% 29.71 in 4.3 mi Variable 4.6 mph - N/A   Unknown
11:00 AM 98.6 °F 101.0 °F 64.4 °F 32% 29.71 in 4.3 mi West 8.1 mph - N/A   Unknown
12:00 PM 98.6 °F 97.6 °F 57.2 °F 25% 29.71 in 4.3 mi WNW 11.5 mph - N/A   Unknown
1:00 PM 100 °F - 51 °F 11% 29.71 in 5 mi NW 11.5 mph - -   Widespread Dust
1:00 PM 100.4 °F - 51.8 °F 20% 29.71 in 5.0 mi NW 11.5 mph - N/A   Unknown
2:00 PM 98.6 °F 97.2 °F 55.4 °F 24% 29.68 in 5.0 mi NW 12.7 mph - N/A   Unknown
3:00 PM 98.6 °F 97.2 °F 55.4 °F 24% 29.68 in 5.0 mi NW 13.8 mph - N/A   Unknown
4:00 PM 99 °F - 52 °F 12% 29.67 in 6 mi NW 13.8 mph - -   Widespread Dust
4:00 PM 98.6 °F - 51.8 °F 21% 29.65 in 5.6 mi NW 13.8 mph - N/A   Unknown
5:00 PM 98.6 °F - 51.8 °F 21% 29.65 in - WNW 13.8 mph - N/A   Clear
6:00 PM 96.8 °F - 44.6 °F 17% 29.65 in - NW 13.8 mph - N/A   Clear
7:00 PM 93 °F - 54 °F 18% 29.66 in 6 mi WNW 12.7 mph - -  
7:00 PM 93.2 °F 91.3 °F 55.4 °F 28% 29.65 in - WNW 12.7 mph - N/A   Clear
8:00 PM 93.2 °F 90.8 °F 53.6 °F 26% 29.65 in - West 5.8 mph - N/A   Clear
9:00 PM 93.2 °F 91.3 °F 55.4 °F 28% 29.68 in - WSW 5.8 mph - N/A   Clear
10:00 PM 92 °F - 56 °F 20% 29.69 in 6 mi SW 5.8 mph - -  
10:00 PM 91.4 °F 89.4 °F 55.4 °F 29% 29.68 in - SW 5.8 mph - N/A   Clear
11:00 PM 87.8 °F 87.6 °F 60.8 °F 40% 29.68 in - SSW 5.8 mph - N/A   Clear